[[{"header":{"parameterUnit":"m.s-1","parameterCategory":1,"la1":30.2991,"la2":30.254,"lo1":-89.0895,"lo2":-89.0444,"dy":0.0017,"dx":0.0017,"nx":28,"ny":28,"refTime":"2023-04-28T21:00:00:Z","depth":0,"parameterNumber":2,"parameterNumberName":"U-component_of_WINDS"},"data":[0,0,0,0,0,0,0,0,0,0,0,0,0,0,0,0,0,0,0,0,0,0,0,0,0,0,0,0,0,0,0,0,0,0,0,0,0,0,0,0,0,0,0,0,0,0,0,0,0,0,0,0,0,0,0,0,0,0,-0.4854,-0.4854,0,-0.4834,-0.4834,-0.4834,-0.4822,-0.4822,-0.4822,-0.4822,-0.4801,-0.4801,-0.48,0,0,0,0,0,0,0,0,0,0,0,0,0,-0.4884,-0.4884,-0.4854,-0.4854,-0.4854,-0.4834,-0.4834,-0.4834,-0.4822,-0.4822,-0.4822,-0.4822,-0.4801,-0.4801,-0.48,0,0,0,0,0,0,0,0,0,0,0,0,0,-0.4868,-0.4884,-0.4854,-0.4846,-0.4845,-0.4834,-0.4834,-0.4833,-0.4822,-0.4822,-0.4822,-0.4822,-0.4802,-0.4801,-0.48,-0.4796,0,0,-0.4798,-0.4797,0,0,0,0,0,0,0,0,-0.4869,-0.4867,-0.4847,-0.4846,-0.4845,-0.4831,-0.4837,-0.4821,-0.4822,-0.4831,-0.4822,-0.4822,-0.4811,-0.4809,-0.4806,-0.4795,-0.4794,-0.4798,-0.4797,-0.4797,-0.4796,0,0,0,0,0,0,0,-0.487,-0.4868,-0.4846,-0.4847,-0.4846,-0.4843,-0.4841,-0.4834,-0.4821,-0.483,-0.4829,-0.4827,-0.481,-0.4807,-0.4805,-0.4794,-0.4798,-0.4797,-0.4796,-0.4796,-0.478,-0.478,0,0,0,0,0,0,-0.4873,-0.4869,-0.4847,-0.4846,-0.4857,-0.4843,-0.484,-0.4835,-0.4822,-0.4819,-0.4827,-0.4827,-0.4808,-0.4806,-0.4804,-0.4799,-0.4797,-0.4796,-0.4796,-0.478,-0.478,-0.478,0,0,0,0,0,0,-0.4873,-0.4871,-0.4848,-0.4857,-0.4854,-0.4842,-0.4837,-0.4835,-0.4831,-0.4819,-0.4817,-0.4825,-0.4808,-0.4805,-0.4798,-0.4799,-0.4796,-0.4795,-0.478,-0.478,-0.478,-0.4789,0,0,0,0,0,0,-0.4874,-0.4871,-0.4869,-0.4857,-0.4854,-0.4842,-0.4837,-0.4835,-0.483,-0.4829,-0.4817,-0.4815,-0.4808,-0.48,-0.4798,-0.4797,-0.4794,-0.478,-0.478,-0.478,-0.4789,-0.479,-0.479,0,0,0,0,0,-0.4876,-0.4873,-0.4869,-0.4867,-0.4851,-0.4842,-0.484,-0.4832,-0.483,-0.4828,-0.4821,-0.4815,-0.4799,-0.4799,-0.4797,-0.4796,-0.478,-0.478,-0.478,-0.4789,-0.479,-0.479,0,0,0,0,0,0,-0.4885,-0.4871,-0.4867,-0.486,-0.4852,-0.484,-0.4838,-0.4833,-0.4825,-0.4825,-0.4815,-0.4812,-0.4806,-0.4801,-0.4801,-0.4792,-0.4789,-0.4788,-0.4796,-0.4797,-0.4798,-0.4799,-0.4794,0,0,0,0,0,-0.4886,-0.488,-0.4868,-0.4863,-0.4859,-0.4849,-0.4845,-0.4839,-0.4831,-0.4828,-0.482,-0.4812,-0.4805,-0.4801,-0.4794,-0.4788,-0.4786,-0.4787,-0.4787,-0.4788,-0.4788,-0.4785,-0.4786,-0.478,-0.478,-0.478,0,0,-0.4889,-0.488,-0.4877,-0.4865,-0.4858,-0.4852,-0.4847,-0.484,-0.4836,-0.4827,-0.482,-0.4814,-0.4804,-0.4798,-0.4795,-0.4793,-0.4789,-0.4788,-0.4789,-0.4788,-0.4785,-0.4786,-0.4786,-0.4781,-0.4781,-0.4781,0,0,-0.489,-0.4883,-0.4878,-0.4872,-0.4862,-0.4856,-0.4855,-0.4844,-0.4839,-0.4832,-0.4825,-0.482,-0.4808,-0.4802,-0.4797,-0.4798,-0.4793,-0.4796,-0.48,-0.4797,-0.4798,-0.4798,-0.4799,-0.4799,-0.4796,-0.4796,-0.4796,0,-0.4895,-0.4885,-0.4877,-0.4871,-0.4866,-0.4858,-0.4854,-0.4848,-0.4836,-0.4833,-0.4831,-0.4817,-0.481,-0.4803,-0.4803,-0.4799,-0.4798,-0.4797,-0.4798,-0.4798,-0.4799,-0.4799,-0.4799,-0.4796,-0.4796,-0.4796,-0.4796,0,-0.4891,-0.4885,-0.4883,-0.4872,-0.4867,-0.4862,-0.4853,-0.4849,-0.4844,-0.4838,-0.4831,-0.4823,-0.4814,-0.4812,-0.4807,-0.4805,-0.4804,-0.48,-0.4797,-0.48,-0.48,-0.48,-0.4797,-0.4797,-0.4797,-0.4797,0,0,-0.4898,-0.4883,-0.4882,-0.4878,-0.4867,-0.4862,-0.4857,-0.4849,-0.4846,-0.4839,-0.4835,-0.4825,-0.4822,-0.4817,-0.4811,-0.4809,-0.4811,-0.4806,-0.4805,-0.4807,-0.4808,-0.4811,-0.4812,-0.4808,-0.4808,-0.4808,-0.4809,0,-0.4898,-0.4889,-0.4881,-0.4875,-0.4869,-0.4862,-0.4858,-0.4851,-0.4845,-0.484,-0.4834,-0.4827,-0.4823,-0.482,-0.4818,-0.4811,-0.4811,-0.4811,-0.4804,-0.4804,-0.4807,-0.4812,-0.4815,-0.4817,-0.4809,-0.4809,-0.4809,0,-0.4897,-0.489,-0.4883,-0.4874,-0.4871,-0.4868,-0.486,-0.4855,-0.4847,-0.4843,-0.4838,-0.4832,-0.4827,-0.4824,-0.4817,-0.4818,-0.4814,-0.4811,-0.4811,-0.481,-0.4807,-0.4811,-0.4817,-0.4817,-0.4809,-0.4809,-0.4809,0,-0.4903,-0.4892,-0.4887,-0.4883,-0.4872,-0.4869,-0.4865,-0.4857,-0.4853,-0.4846,-0.4844,-0.4837,-0.4833,-0.4828,-0.482,-0.4819,-0.4815,-0.4811,-0.4811,-0.4812,-0.4811,-0.4811,-0.4816,-0.4808,-0.4808,-0.4808,-0.4808,0,-0.4904,-0.49,-0.4889,-0.4886,-0.4882,-0.4874,-0.487,-0.4864,-0.4858,-0.4854,-0.4847,-0.4843,-0.4834,-0.4829,-0.4823,-0.4819,-0.4817,-0.4814,-0.4812,-0.4814,-0.4815,-0.4812,-0.4812,-0.4808,-0.4808,-0.4808,-0.4808,0,-0.4909,-0.4902,-0.4896,-0.4886,-0.4884,-0.4881,-0.4873,-0.487,-0.4864,-0.4859,-0.4857,-0.4848,-0.4842,-0.4835,-0.4826,-0.4822,-0.4819,-0.4816,-0.4822,-0.4821,-0.4822,-0.4822,-0.4826,-0.4826,-0.4818,-0.4818,-0.4818,0,-0.4911,-0.4908,-0.4898,-0.4895,-0.489,-0.4885,-0.4881,-0.4874,-0.487,-0.4861,-0.4859,-0.4853,-0.4848,-0.4839,-0.4832,-0.4826,-0.4823,-0.4825,-0.4822,-0.4825,-0.4824,-0.4824,-0.4824,-0.4826,-0.4826,-0.4826,-0.4826,0,-0.4914,-0.4911,-0.4905,-0.4899,-0.4895,-0.4889,-0.4883,-0.4881,-0.4872,-0.4869,-0.4863,-0.4859,-0.4851,-0.4845,-0.4838,-0.4833,-0.4828,-0.4827,-0.4827,-0.4829,-0.4832,-0.4831,-0.4824,-0.4827,-0.4827,-0.4827,-0.4827,-0.4827,-0.4918,-0.4915,-0.4908,-0.4902,-0.4898,-0.4893,-0.4889,-0.4884,-0.4879,-0.4872,-0.4868,-0.4862,-0.4855,-0.4846,-0.4841,-0.4837,-0.4835,-0.4835,-0.4835,-0.4835,-0.4836,-0.4833,-0.4836,-0.4836,-0.4836,-0.4836,-0.4836,0,-0.4921,-0.4916,-0.4911,-0.4904,-0.49,-0.4896,-0.489,-0.4887,-0.4882,-0.4876,-0.4871,-0.4865,-0.486,-0.4852,-0.4847,-0.4845,-0.4842,-0.4843,-0.4844,-0.4843,-0.4838,-0.4839,-0.4845,-0.4845,-0.4845,-0.4845,-0.4845,-0.4845,-0.4922,-0.4918,-0.4914,-0.4907,-0.4903,-0.4898,-0.4894,-0.489,-0.4886,-0.4879,-0.4875,-0.487,-0.4864,-0.4858,-0.4853,-0.4851,-0.4849,-0.4851,-0.4848,-0.4844,-0.4843,-0.4842,-0.4843,-0.4851,-0.4851,-0.4854,-0.4854,-0.4854]},{"header":{"parameterUnit":"m.s-1","parameterCategory":1,"la1":30.2991,"la2":30.254,"lo1":-89.0895,"lo2":-89.0444,"dy":0.0017,"dx":0.0017,"nx":28,"ny":28,"refTime":"2023-04-28T21:00:00:Z","depth":0,"parameterNumber":3,"parameterNumberName":"V-component_of_WINDS"},"data":[0,0,0,0,0,0,0,0,0,0,0,0,0,0,0,0,0,0,0,0,0,0,0,0,0,0,0,0,0,0,0,0,0,0,0,0,0,0,0,0,0,0,0,0,0,0,0,0,0,0,0,0,0,0,0,0,0,0,3.1066,3.1065,0,3.1023,3.1023,3.1022,3.0928,3.0926,3.0924,3.0923,3.0882,3.0883,3.0884,0,0,0,0,0,0,0,0,0,0,0,0,0,3.1068,3.1069,3.1066,3.1065,3.1065,3.1023,3.1023,3.1022,3.0929,3.0926,3.0924,3.0922,3.0882,3.0883,3.0884,0,0,0,0,0,0,0,0,0,0,0,0,0,3.1051,3.1069,3.1066,3.1013,3.1008,3.1023,3.1023,3.1022,3.0929,3.0926,3.0923,3.0921,3.0882,3.0883,3.0884,3.0949,0,0,3.0887,3.0888,0,0,0,0,0,0,0,0,3.1052,3.1051,3.1021,3.1016,3.1011,3.0978,3.1009,3.0998,3.093,3.0959,3.0923,3.0919,3.0917,3.0915,3.0913,3.0947,3.0945,3.0888,3.0888,3.0889,3.0889,0,0,0,0,0,0,0,3.1053,3.1052,3.1049,3.1021,3.1014,3.0992,3.0987,3.1006,3.0955,3.0956,3.0949,3.0945,3.0913,3.0913,3.0912,3.0945,3.0887,3.0888,3.0889,3.089,3.103,3.1033,0,0,0,0,0,0,3.1062,3.1054,3.105,3.1048,3.1025,3.0995,3.0988,3.0992,3.0954,3.0946,3.0948,3.0941,3.0912,3.0911,3.091,3.0984,3.0889,3.089,3.089,3.1027,3.103,3.1034,0,0,0,0,0,0,3.1062,3.1062,3.1052,3.1049,3.1046,3.0997,3.1002,3.0992,3.0991,3.0948,3.0939,3.0956,3.091,3.0908,3.094,3.0981,3.089,3.0891,3.1023,3.1028,3.1032,3.1131,0,0,0,0,0,0,3.1063,3.1063,3.1086,3.105,3.1046,3.1082,3.1005,3.0993,3.0993,3.0984,3.0953,3.0946,3.0907,3.0939,3.0941,3.0981,3.0892,3.1019,3.1025,3.1031,3.1124,3.1139,3.1151,0,0,0,0,0,3.1063,3.1117,3.1088,3.1088,3.1074,3.1084,3.1082,3.1036,3.0997,3.102,3.0993,3.0947,3.0976,3.0943,3.0944,3.0985,3.1016,3.1023,3.103,3.1118,3.1136,3.1151,0,0,0,0,0,0,3.116,3.1111,3.1079,3.1122,3.1108,3.1068,3.1097,3.1057,3.1054,3.1046,3.099,3.0984,3.1023,3.1007,3.0971,3.1046,3.0989,3.0996,3.1055,3.1072,3.1085,3.1088,3.0893,0,0,0,0,0,3.1187,3.1198,3.1154,3.1197,3.1191,3.1146,3.1148,3.1114,3.1098,3.1092,3.1066,3.1053,3.1059,3.1064,3.1068,3.1121,3.1114,3.115,3.1164,3.1175,3.1183,3.1211,3.1226,3.1056,3.1056,3.1056,0,0,3.1242,3.1216,3.1227,3.1216,3.1201,3.1215,3.1141,3.1159,3.1169,3.1095,3.1122,3.1103,3.1085,3.1128,3.1146,3.1116,3.1228,3.1184,3.1193,3.1195,3.1219,3.1235,3.125,3.1061,3.106,3.1059,0,0,3.1348,3.133,3.1363,3.135,3.1328,3.1297,3.1305,3.1272,3.1256,3.1283,3.1227,3.1239,3.1251,3.124,3.1236,3.1339,3.1297,3.1342,3.1413,3.1441,3.1454,3.1466,3.1503,3.1517,3.1349,3.135,3.135,0,3.142,3.1437,3.1386,3.1407,3.1404,3.1336,3.137,3.136,3.1341,3.1341,3.1308,3.1321,3.1304,3.1344,3.1369,3.1368,3.1376,3.1345,3.1456,3.1467,3.1478,3.1513,3.1527,3.1355,3.1355,3.1354,3.1354,0,3.1526,3.1539,3.1569,3.1551,3.1552,3.158,3.1534,3.154,3.1506,3.148,3.1508,3.1485,3.1483,3.149,3.1457,3.1525,3.1507,3.1466,3.1407,3.15,3.1532,3.1545,3.1363,3.1361,3.136,3.1358,0,0,3.1693,3.1647,3.1659,3.165,3.1621,3.163,3.1656,3.1652,3.166,3.1649,3.1669,3.1681,3.1642,3.1638,3.1603,3.1628,3.1712,3.1583,3.1582,3.1608,3.1786,3.1818,3.1835,3.1683,3.1686,3.1688,3.1788,0,3.1794,3.1833,3.1788,3.1837,3.1849,3.1785,3.1806,3.1792,3.1767,3.1775,3.1748,3.1757,3.1706,3.1703,3.1724,3.1697,3.1747,3.1689,3.1703,3.1704,3.171,3.1851,3.1885,3.1981,3.18,3.1802,3.1804,0,3.1917,3.1911,3.1961,3.1929,3.1932,3.1952,3.1946,3.1954,3.1936,3.1916,3.1912,3.187,3.1893,3.1836,3.1868,3.183,3.1833,3.182,3.1823,3.1823,3.176,3.1856,3.201,3.2025,3.1823,3.1822,3.182,0,3.2034,3.2039,3.207,3.2064,3.2027,3.2043,3.2029,3.2008,3.2009,3.2004,3.2004,3.2002,3.2001,3.2001,3.196,3.1922,3.1998,3.1937,3.1983,3.1985,3.2003,3.2002,3.216,3.2004,3.2004,3.2003,3.2003,0,3.2152,3.2185,3.2122,3.2141,3.2177,3.2125,3.2162,3.2141,3.2123,3.2138,3.2082,3.2098,3.2042,3.2052,3.202,3.2052,3.2052,3.2038,3.2029,3.2043,3.2045,3.2045,3.2037,3.2007,3.2006,3.2006,3.2005,0,3.229,3.2248,3.2278,3.224,3.2232,3.226,3.2228,3.2245,3.2217,3.2236,3.2238,3.2194,3.2202,3.2161,3.2163,3.2141,3.219,3.2169,3.2195,3.2189,3.2238,3.2235,3.2402,3.2422,3.2253,3.2255,3.2256,0,3.2367,3.2392,3.2356,3.2362,3.235,3.2359,3.236,3.231,3.2313,3.2295,3.2314,3.2317,3.2318,3.2334,3.2303,3.2304,3.2284,3.2343,3.2284,3.2298,3.2286,3.2285,3.2288,3.2356,3.2358,3.2359,3.2361,0,3.251,3.2489,3.2491,3.2487,3.2489,3.2483,3.2474,3.2482,3.2428,3.2434,3.2441,3.2442,3.2443,3.2448,3.2442,3.2428,3.2386,3.2379,3.239,3.2405,3.242,3.2413,3.223,3.2376,3.2374,3.2373,3.2372,3.2372,3.2621,3.2639,3.2618,3.2622,3.261,3.2603,3.2616,3.259,3.2595,3.2591,3.2561,3.2575,3.2557,3.2545,3.2535,3.2546,3.2518,3.2534,3.2538,3.2543,3.2552,3.2417,3.2545,3.2544,3.2544,3.2543,3.2543,0,3.2761,3.2744,3.2749,3.2737,3.2741,3.27,3.2688,3.2694,3.2706,3.2692,3.2694,3.2703,3.2707,3.2676,3.2677,3.2691,3.2672,3.2693,3.2692,3.269,3.2576,3.2567,3.2709,3.2709,3.2709,3.2709,3.2709,3.2709,3.2835,3.2864,3.284,3.2863,3.2846,3.2858,3.2854,3.2848,3.2836,3.2849,3.2852,3.2831,3.2811,3.281,3.2812,3.2803,3.2806,3.2834,3.2819,3.2714,3.2697,3.2682,3.2673,3.2835,3.2835,3.2932,3.2932,3.2933]}]]